SCP
0 0 0 0 0 0 0 0 0 0 0 0 0 0 0 0 0 0 0 0 0 0 0 0 0 0 0 0 0 0 0 0 0 0 0 0 0 0 0 0 0 0 0 0 0 0 0 0 0 0 0 0 0 -0
0 0 0 0 0 0 0 0 0 0 0 0 0 0 0 0 0 0 0 0 0 0 0 0 0 0 0 0 0 0 0 0 0 0 0 0 0 0 0 0 0 0 0 0 0 0 0 0 0 -0 0 0 0 -0
0 0 0 0 0 0 0 0 0 0 0 0 0 0 0 0 0 0 0 0 0 0 0 0 0 0 0 0 0 0 0 0 0 0 0 0 0 0 0 0 0 -0 0 0 0 0 0 0 0 0 0 0 0 0
0 0 0 0 0 0 0 0 0 0 0 0 0 0 0 0 0 0 0 0 0 0 0 0 0 0 0 0 0 0 0 0 0 0 0 0 0 0 0 0 0 0 -0 0 0 -0 -0 0 0 0 0 0 0 0
0 0 0 0 0 0 0 0 0 0 0 0 0 0 0 0 0 0 0 0 0 0 0 0 0 0 0 0 0 0 0 0 0 0 0 0 0 0 0 0 0 0 0 0 0 0 0 0 0 0 0 0 0 -0
0 0 0 0 0 0 0 0 0 0 0 0 0 0 0 0 0 0 0 0 0 0 0 0 0 0 0 0 -0 0 0 0 0 0 0 0 0 0 0 0 -0 0 0 0 0 0 0 0 0 0 0 0 0 -0
0 0 0 0 0 0 0 0 0 0 0 0 0 0 0 0 0 0 0 0 0 0 0 0 0 0 0 0 0 0 0 0 0 0 0 0 0 0 0 0 0 -0 0 -0 -0 0 0 0 0 0 0 0 0 -0
0 0 0 0 0 0 0 0 0 0 0 0 0 0 0 0 0 0 0 0 0 0 0 0 0 0 0 0 0 0 0 0 0 0 0 0 0 0 -0 -0 -0 0 0 0 0 0 0 0 0 -0 0 0 0 -0
0 0 0 0 0 0 0 0 0 0 0 0 0 0 0 0 0 0 0 0 0 0 0 0 0 0 0 0 0 0 0 0 0 -0 -0 0 0 0 -0 -0 -0 0 0 0 0 0 0 -0 0 -0 0 0 -0 0
0 0 0 0 0 0 0 0 0 0 0 0 0 0 0 0 0 0 0 0 0 0 0 0 0 0 0 0 0 0 0 0 -0 0 0 0 0 0 -0 -0 0 0 0 0 0 0 -0 0 0 -0 0 -0 -0 0
0 0 0 0 0 0 0 0 0 0 0 0 0 0 0 0 0 0 0 0 0 0 0 0 0 0 0 0 0 0 0 -0 0 -0 -0 -0 0 -0 -0 -0 -0 0 0 0 0 0 0 0 -0 0 0 0 -0 0
0 0 0 0 0 0 0 0 0 0 0 0 0 0 0 0 0 0 0 0 0 0 0 0 0 0 0 0 0 -0 0 0 0 0 -0 0 -0 -0 -0 -0 -0 0 0 0 0 0 0 -0 -0 0 0 0 0 0
0 0 0 0 0 0 0 0 0 0 0 0 0 0 0 0 0 0 0 0 0 0 0 0 0 0 0 0 -0 -0 -0 0 -0 0 -0 -0 -0 -0 -0 -0 -0 -0 0 0 0 0 -0 -0 -0 0 0 0 0 0
0 0 0 0 0 0 0 0 0 0 0 0 0 0 0 0 0 0 0 0 0 0 0 0 0 0 0 -0 -0 -0 -0 0 0 0 -0 -0 -0 -0 -0 -0 -0 -0 0 0 0 0 -0 -0 -0 -0 0 0 0 0
0 0 0 0 0 0 0 0 0 0 0 0 0 0 0 0 0 0 0 0 0 0 0 0 -0 -0 -0 0 -0 -0 -0 -0 0 0 0 -0 -0 -0 -0 -0 -0 -0 0 0 0 0 -0 -0 -0 -0 0 0 0 0
0 0 0 0 0 0 0 0 0 0 0 0 0 0 0 0 0 0 0 0 0 0 0 -0 -0 -0 -0 -0 -0 -0 -0 0 0 0 0 -0 -0 -0 -0 -0 -0 -0 0 0 0 0 -0 -0 -0 -0 0 0 0 0
0 0 0 0 0 0 0 0 0 0 0 0 0 0 0 0 0 0 0 0 0 0 0 0 0 0 -0 0 0 0 0 0 0 -0 -0 -0 -0 -0 -0 -0 -0 -0 -0 0 0 0 0 -0 -0 -0 -0 0 0 0
0 0 0 0 0 0 0 0 0 0 0 0 0 0 0 0 0 0 0 0 0 0 0 0 0 0 0 0 0 -0 0 0 0 0 -0 -0 -0 -0 -0 -0 -0 -0 -0 0 -0 0 0 0 -0 -0 -0 -0 -0 0
0 0 0 0 0 0 0 0 0 0 0 0 0 0 0 0 0 0 0 0 0 0 0 0 0 0 0 -0 -0 -0 0 -0 0 0 0 0 -0 -0 -0 -0 -0 -0 -0 -0 0 0 0 0 -0 -0 -0 -0 -0 -0
0 0 0 0 0 0 0 0 0 0 0 0 0 0 0 0 0 0 0 0 0 0 0 0 0 0 0 0 -0 -0 0 -0 -0 0 0 0 0 0 0 0 -0 -0 -0 -0 -0 -0 0 0 0 -0 -0 -0 -0 -0
0 0 0 0 0 0 0 0 0 0 0 0 0 0 0 0 0 0 0 0 0 0 0 0 0 0 0 0 0 0 0 0 0 0 0 0 0 0 0 0 0 0 -0 -0 -0 -0 -0 -0 0 0 -0 -0 -0 -0
0 0 0 0 0 0 0 0 0 0 0 0 0 0 0 0 0 0 0 0 0 0 0 0 0 0 0 0 0 0 0 0 -0 -0 0 0 0 0 0 0 0 0 0 0 -0 -0 0 -0 0 0 -0 0 0 -0
0 0 0 0 0 0 0 0 0 0 0 0 0 0 0 0 0 0 0 0 0 0 0 0 0 0 0 0 0 0 0 -0 -0 -0 0 0 0 0 0 0 0 0 0 0 0 -0 -0 -0 0 0 0 -0 -0 0
0 0 0 0 0 0 0 0 0 0 0 0 0 0 0 0 0 0 0 0 0 0 0 0 0 0 0 0 0 0 0 0 -0 -0 -0 0 0 0 0 0 0 0 0 0 0 0 0 -0 0 0 0 -0 -0 0
0 0 0 0 0 0 0 0 0 0 0 0 0 0 0 0 0 0 0 0 0 0 0 0 0 0 0 0 0 0 0 0 -0 -0 -0 -0 0 0 0 0 0 0 0 0 0 0 -0 0 0 0 -0 -0 -0 -0
0 0 0 0 0 0 0 0 0 0 0 0 0 0 0 0 0 0 0 0 0 0 0 0 0 0 0 0 0 0 0 0 0 -0 -0 -0 -0 0 0 0 0 0 0 0 0 0 0 0 0 0 0 -0 -0 -0
0 0 0 0 0 0 0 0 0 0 0 0 0 0 0 0 0 0 0 0 0 0 0 0 0 0 0 0 0 0 0 0 0 0 -0 -0 -0 0 0 0 0 0 0 0 0 0 0 0 0 0 0 0 -0 -0
0 0 0 0 0 0 0 0 0 0 0 0 0 0 0 0 0 0 0 0 0 0 0 0 0 0 0 0 0 0 0 0 0 0 0 0 0 -0 0 0 0 0 0 0 0 0 0 0 0 0 0 0 0 0
0 0 0 0 0 0 0 0 0 0 0 0 0 0 0 0 0 0 0 0 0 0 0 0 0 0 0 0 0 0 0 -0 -0 0 0 0 0 0 0 0 0 0 0 0 0 0 0 0 0 0 0 0 0 0
0 0 0 0 0 0 0 0 0 0 0 0 0 0 0 0 0 0 0 0 0 0 0 0 0 0 0 0 0 0 0 0 -0 -0 -0 0 0 0 0 0 0 0 0 0 0 0 0 0 0 0 0 0 0 0
0 0 0 0 0 0 0 0 0 0 0 0 0 0 0 0 0 0 0 0 0 0 0 0 0 0 0 0 0 0 0 0 0 0 -0 -0 -0 -0 0 0 0 0 0 0 0 0 0 0 0 0 0 0 0 0
0 0 0 0 0 0 0 0 0 0 0 0 0 0 0 0 0 0 0 0 0 0 0 0 0 0 0 0 0 0 0 -0 -0 -0 -0 -0 -0 -0 0 0 0 -0 -0 -0 0 0 0 0 0 0 0 0 0 0
0 0 0 0 0 0 0 0 0 0 0 0 0 0 0 0 0 0 0 0 0 0 0 0 0 0 0 0 0 0 0 0 0 -0 -0 -0 0 0 -0 0 -0 -0 -0 -0 -0 0 0 0 0 0 0 0 0 0
Wind_Speed_500mb
48 43 42 43 39 35 37 35 35 37 38 40 42 45 45 38 36 26 17 12 16 14 54 36 24 20 19 19 6 9 17 5 8 7 3 4 5 6 7 6 7 10 8 7 7 9 13 10 9 10 17 34 42 57
51 45 44 45 42 38 37 37 35 37 37 40 43 43 47 39 32 27 26 22 33 27 50 73 68 68 55 53 27 9 9 14 8 4 5 5 5 6 6 7 4 6 6 4 12 10 14 23 33 51 61 56 65 59
54 48 45 44 43 40 37 38 35 35 36 40 42 41 44 40 32 29 36 35 35 19 41 15 3 15 41 30 28 23 13 15 15 15 4 5 9 3 4 7 6 8 4 5 10 8 16 38 52 45 42 56 69 66
55 51 48 45 43 42 39 37 35 33 35 41 45 43 43 39 33 33 33 24 19 13 10 15 35 21 16 18 28 46 38 23 23 13 7 5 5 13 6 10 11 20 14 8 10 18 30 34 47 55 60 42 39 53
54 52 50 46 44 43 40 37 35 32 33 38 43 42 41 36 31 31 7 10 5 4 8 29 31 25 39 25 13 24 40 44 18 9 6 5 7 5 7 4 6 7 11 6 12 33 35 49 60 56 49 50 56 56
56 52 52 48 45 43 38 38 35 30 32 38 40 39 36 30 27 18 4 11 18 9 12 7 22 22 34 30 23 10 23 39 23 9 8 9 13 8 5 6 15 34 36 45 27 46 54 62 54 33 43 47 59 56
60 53 50 49 44 42 39 39 34 29 31 35 38 38 33 23 19 7 0 4 9 17 7 12 18 14 31 22 17 9 6 20 17 10 11 10 12 16 4 7 19 51 53 49 62 47 40 19 22 41 44 45 65 58
62 54 49 49 43 40 38 38 31 28 32 34 36 36 29 22 11 2 1 3 9 11 7 4 8 20 24 15 12 5 5 11 11 7 6 6 4 7 6 20 49 57 58 56 42 47 33 38 45 51 47 53 47 50
62 55 47 48 41 37 37 36 28 27 32 31 32 18 2 7 3 2 18 7 8 7 4 4 4 8 22 15 11 7 4 5 5 5 5 5 1 4 21 45 63 59 43 53 43 37 35 39 49 50 47 40 40 52
73 57 55 45 39 35 34 30 24 25 27 24 11 3 4 6 10 16 2 3 5 6 4 5 5 7 10 10 9 9 5 4 4 5 8 2 3 18 50 72 65 65 50 37 28 31 39 51 49 53 46 40 35 41
66 65 54 45 37 33 30 25 21 20 18 6 4 5 6 10 7 4 4 5 6 4 7 9 12 10 11 5 6 6 6 4 4 4 4 5 7 38 84 84 63 45 31 18 21 31 41 42 42 47 47 40 37 33
61 64 60 43 37 31 27 22 15 15 11 8 5 2 7 5 4 3 5 5 7 4 7 9 14 17 15 10 8 8 5 4 3 15 6 5 11 68 78 87 76 48 17 31 31 40 50 43 36 40 42 43 37 35
64 60 55 39 35 32 30 19 11 10 7 2 3 3 2 5 1 5 0 4 5 5 8 13 11 17 8 4 4 5 6 5 9 7 4 6 43 73 80 81 79 57 25 28 34 44 47 41 38 44 44 37 34 35
66 64 51 38 34 38 28 21 6 11 6 6 5 4 7 6 7 4 7 7 6 10 24 27 14 4 5 7 2 4 5 4 6 10 7 16 60 77 80 77 75 63 45 26 33 44 50 44 40 45 43 38 39 40
64 58 44 35 39 36 30 14 12 13 10 7 7 6 9 4 7 8 5 1 7 22 31 21 4 3 6 6 6 6 7 6 4 8 10 48 64 73 78 82 80 71 62 29 21 35 45 44 43 46 53 47 46 45
56 45 42 39 38 36 26 18 17 14 8 8 9 5 6 7 2 5 7 7 17 23 16 6 6 6 8 5 7 10 6 6 7 14 45 55 64 70 79 74 70 67 56 31 15 28 37 43 40 40 44 51 50 52
53 43 50 46 37 35 28 24 16 10 10 8 11 16 12 9 5 8 2 7 15 9 3 5 7 1 4 5 5 5 2 7 34 46 45 62 65 68 73 61 62 53 46 32 14 22 30 36 37 47 45 47 56 61
56 53 48 43 44 37 34 16 11 10 12 18 7 11 12 9 20 9 3 9 6 2 4 4 6 8 5 3 3 3 16 35 41 39 59 63 60 64 54 55 55 47 45 42 18 15 21 27 37 40 44 47 43 57
55 51 44 46 47 29 18 17 12 8 20 8 16 11 12 18 15 7 5 1 6 9 14 8 8 3 3 5 8 26 34 31 40 55 61 51 50 54 54 44 48 50 39 38 28 10 11 10 21 31 34 37 48 50
43 37 38 53 43 13 10 9 14 9 8 10 12 18 22 16 21 15 16 13 12 9 11 6 5 5 1 9 16 20 28 36 46 52 49 52 54 55 48 43 43 45 41 29 27 9 13 13 11 20 27 31 32 31
55 49 54 51 28 9 9 9 13 9 7 9 15 22 17 34 16 7 9 7 10 6 5 8 12 8 2 7 16 24 33 37 34 34 44 57 52 49 45 39 38 38 42 38 27 9 11 16 15 11 17 22 26 28
60 58 51 41 12 10 8 14 8 7 9 6 14 16 15 13 13 8 12 8 6 6 9 12 11 6 4 6 16 25 33 40 28 26 29 35 43 44 42 40 41 39 41 44 25 20 4 3 4 7 13 17 20 25
62 47 37 17 12 19 8 16 11 9 5 8 17 10 8 10 18 24 8 5 8 15 14 17 10 5 3 2 12 23 36 43 38 27 35 37 36 35 36 36 34 32 39 38 25 14 1 13 7 3 8 8 11 17
50 24 13 14 16 11 9 11 13 8 9 6 9 9 10 14 26 7 4 9 15 21 17 18 13 9 8 3 12 23 37 42 37 32 31 36 40 41 36 36 34 28 37 33 25 11 12 18 19 9 6 6 7 11
12 13 11 11 15 10 9 8 8 6 7 7 7 6 8 15 5 4 8 17 33 25 26 20 12 7 6 4 12 20 30 39 41 38 32 31 38 40 41 36 32 30 36 33 22 17 9 22 21 16 15 8 4 7
8 16 16 18 14 10 10 9 12 10 7 7 9 15 9 7 6 7 7 32 39 30 25 22 14 8 4 4 11 23 30 32 36 34 27 33 34 37 44 45 47 39 37 34 26 17 13 13 23 30 27 18 10 7
8 10 12 16 11 7 6 7 12 8 9 8 8 7 6 7 6 7 20 29 28 25 25 17 11 4 3 5 12 19 23 27 34 33 26 30 28 33 44 45 44 44 41 36 29 22 17 8 16 23 35 36 24 17
10 6 10 13 10 11 3 6 8 9 8 11 21 6 13 8 5 18 19 26 29 27 23 15 9 6 2 5 13 19 24 29 31 25 16 18 31 43 48 45 38 35 35 31 28 24 24 25 15 23 31 44 45 35
8 8 12 4 10 9 14 8 10 11 15 19 8 5 8 9 22 28 37 38 32 25 23 14 17 10 5 6 14 20 27 35 42 48 50 50 50 51 53 54 52 46 42 37 28 25 25 34 37 31 32 39 52 55
8 22 10 10 9 9 7 8 13 19 19 28 27 36 36 40 42 38 37 33 31 28 22 19 18 12 4 3 10 18 24 30 39 47 53 52 52 52 53 54 55 54 50 47 43 34 28 32 46 43 49 39 56 68
12 25 13 11 10 12 23 23 29 36 30 24 38 55 44 36 42 34 31 27 25 26 24 20 15 10 7 7 11 17 21 28 36 43 46 42 39 39 45 49 52 55 56 55 50 40 35 32 39 55 46 52 59 64
20 16 12 9 6 39 42 13 11 15 19 26 24 30 37 18 12 17 24 20 23 24 23 19 15 8 7 10 14 18 25 30 39 45 46 41 36 35 40 43 49 54 58 58 54 44 35 36 37 54 52 42 54 64
28 22 31 15 14 15 14 19 11 11 11 9 12 30 19 11 10 17 27 20 18 17 14 15 13 11 9 12 15 19 26 33 37 37 34 33 33 34 37 39 42 48 53 56 55 51 42 26 19 42 56 46 51 67
Wind_Direction_500mb
264 268 275 281 286 293 301 308 316 321 328 331 336 339 333 336 340 350 334 301 327 266 285 277 259 242 234 230 194 322 347 330 349 16 263 309 289 348 305 313 292 197 189 209 201 221 264 144 99 189 238 285 298 294
262 263 269 275 281 287 295 301 311 317 324 327 330 336 328 329 335 327 316 302 305 279 273 291 285 276 276 256 253 227 248 306 293 38 5 338 318 313 307 295 277 269 194 218 209 222 236 210 247 279 287 277 294 292
260 261 265 271 276 282 289 297 305 312 318 322 325 330 325 324 331 321 311 314 313 292 304 308 18 322 314 289 265 206 235 214 225 221 180 248 264 279 288 267 314 299 326 262 352 273 265 283 301 311 317 294 293 298
256 260 263 266 272 278 283 292 299 306 314 322 324 327 323 323 333 327 315 315 297 293 295 294 325 353 3 324 232 221 259 270 247 195 211 250 243 204 248 251 257 259 313 253 258 278 305 296 307 304 307 310 311 308
249 256 261 264 269 273 280 288 293 301 312 319 320 323 321 324 334 336 339 11 333 269 297 294 337 12 12 1 287 260 246 225 204 175 213 224 246 296 263 256 247 212 223 225 277 305 276 283 294 302 300 315 322 323
243 249 257 262 265 272 278 282 290 298 310 318 317 315 318 321 336 358 163 46 43 39 315 301 313 340 2 2 354 316 230 215 229 198 216 220 220 223 271 265 256 259 268 292 282 297 293 302 297 286 311 322 329 314
240 245 251 258 262 268 274 279 287 298 311 317 312 310 310 304 320 332 176 319 294 329 272 295 313 314 341 332 346 28 235 217 232 226 231 230 230 204 247 269 305 317 310 319 317 304 299 307 314 319 313 315 324 324
235 242 247 254 260 265 270 277 283 299 311 317 309 304 302 286 272 225 232 322 283 243 269 308 281 319 350 318 321 305 240 215 223 241 251 235 224 198 266 269 302 306 308 301 300 325 307 313 319 327 325 313 315 320
227 236 244 250 255 261 267 274 283 301 316 317 306 310 22 154 178 320 327 323 191 213 243 241 279 296 331 317 303 282 268 249 252 248 239 185 69 57 305 320 318 321 320 294 324 326 306 322 323 321 325 325 325 326
224 225 230 247 250 254 262 267 284 308 320 312 296 238 199 198 248 313 161 241 208 225 225 255 268 279 301 321 302 315 258 238 257 236 130 172 97 290 334 334 330 329 343 332 326 331 340 333 329 330 333 332 330 329
215 229 221 234 248 248 255 263 284 314 316 305 243 210 226 255 254 232 220 225 193 238 230 247 247 277 294 257 277 269 287 266 267 52 306 62 359 342 336 333 348 346 340 335 350 353 341 337 332 334 336 345 348 340
217 224 226 225 242 242 241 254 285 305 305 307 283 208 169 203 223 242 213 177 218 257 224 231 263 254 281 245 269 288 284 295 332 345 37 13 345 340 338 344 350 360 7 349 354 354 354 352 349 343 349 354 354 355
209 220 220 216 233 231 233 241 269 287 291 174 156 164 193 171 74 226 151 340 337 215 253 256 282 292 270 273 323 339 349 340 1 19 24 45 336 341 340 343 351 14 357 347 354 0 6 7 7 4 1 7 8 4
212 219 214 207 222 226 230 229 217 239 197 185 170 334 186 211 229 168 163 198 255 271 316 315 281 265 346 20 351 331 360 339 35 12 5 346 343 339 340 341 350 358 359 334 347 1 11 16 19 14 16 19 18 24
211 218 198 207 219 222 225 194 202 201 193 195 188 224 210 255 152 177 173 134 7 342 331 332 2 334 4 22 21 351 24 38 34 10 310 326 338 336 338 340 346 351 355 342 344 3 14 20 27 26 27 29 31 35
207 199 200 198 217 219 196 166 180 175 195 209 226 247 217 143 272 138 112 16 348 334 331 25 45 52 37 346 36 5 59 8 323 322 315 330 335 335 335 339 349 355 4 355 343 7 17 23 29 29 25 39 45 49
194 193 186 199 212 196 151 168 178 202 200 216 234 225 251 246 224 155 174 340 342 344 25 60 63 271 326 39 56 36 36 300 315 317 324 334 331 329 333 339 351 359 11 10 341 3 17 27 31 38 42 44 56 59
189 191 192 201 197 149 168 171 190 207 230 227 224 203 202 190 170 176 233 321 306 33 58 84 92 47 50 59 339 351 315 319 323 323 324 335 328 330 338 339 351 0 6 18 337 331 4 21 32 42 41 42 50 56
193 186 193 189 160 147 166 187 193 231 225 217 224 208 149 148 139 116 7 329 156 131 110 72 74 77 66 50 322 320 321 331 327 323 326 329 334 333 336 343 350 3 6 11 4 329 351 3 33 43 40 32 44 50
184 193 187 154 148 149 163 193 195 235 219 199 202 158 152 152 136 110 72 113 128 71 64 61 100 129 75 331 340 340 332 330 333 329 329 336 346 344 344 346 347 357 7 2 6 337 356 352 15 45 51 44 43 38
162 156 149 163 176 178 191 194 194 213 201 190 172 154 142 148 145 121 87 73 66 59 98 121 125 122 96 38 359 353 351 345 336 330 325 329 343 345 344 350 348 351 358 1 15 9 344 360 23 61 51 52 54 58
157 151 157 164 174 196 241 208 206 181 189 170 169 153 142 155 154 145 129 68 88 116 131 133 132 162 132 25 1 353 350 349 342 334 337 341 338 348 351 351 345 342 350 351 347 360 310 267 28 44 51 60 59 51
144 144 148 161 196 200 239 188 195 192 154 194 161 135 137 142 161 150 88 109 143 155 147 144 153 180 217 328 355 353 350 354 355 350 355 351 349 351 346 347 354 349 347 346 6 25 140 186 193 136 89 77 50 69
135 147 167 195 198 199 198 193 188 188 187 158 158 152 143 136 153 96 131 161 172 170 160 159 190 189 170 48 16 353 351 355 355 0 357 350 345 347 347 351 356 356 352 352 8 29 159 190 191 201 184 121 80 72
129 186 194 199 196 192 202 167 168 171 180 172 160 125 148 150 107 144 172 180 172 173 170 182 196 195 172 51 16 347 352 357 355 353 356 356 347 343 347 352 354 357 356 353 8 39 116 184 202 221 219 206 144 130
193 195 185 193 174 190 201 162 177 174 150 145 190 139 133 102 117 185 209 183 178 178 183 179 176 159 135 30 6 354 356 355 355 355 359 359 2 358 349 343 341 343 352 350 346 330 360 181 198 205 218 224 220 201
189 206 199 206 203 218 221 182 163 144 173 181 156 130 117 130 169 180 157 169 173 166 161 158 151 138 113 45 7 359 359 359 3 359 352 2 2 5 1 349 339 333 330 328 330 322 295 246 207 202 213 222 229 231
221 204 191 177 204 223 246 179 158 170 178 164 136 119 149 152 146 163 171 164 157 145 139 148 163 161 91 14 7 357 353 353 357 356 355 12 10 7 0 356 351 342 331 319 307 293 266 259 263 208 211 220 225 225
204 182 178 244 224 240 215 218 187 166 156 154 106 108 119 104 141 148 148 147 146 154 162 161 154 161 132 23 4 353 350 351 359 4 5 358 356 360 357 354 354 353 346 337 325 300 276 245 247 234 206 217 220 224
201 193 207 224 193 211 222 200 153 144 142 142 119 110 104 119 134 143 151 155 162 169 171 174 170 188 158 19 359 348 345 349 356 360 357 352 346 346 346 350 353 353 349 345 334 318 291 266 233 234 231 216 210 214
185 204 214 248 189 158 147 142 132 128 123 109 136 127 125 118 126 138 162 176 180 177 183 189 194 201 224 291 329 335 335 342 347 347 345 343 342 342 345 350 352 351 350 346 338 324 302 277 249 224 228 223 216 212
199 214 199 192 93 147 143 112 82 102 111 108 112 133 133 116 106 145 152 174 194 200 196 198 212 214 263 303 320 325 330 334 334 340 341 342 346 348 349 351 354 355 355 353 349 336 313 285 259 222 214 209 215 213
209 218 220 193 133 183 146 114 112 113 116 114 126 143 120 113 133 165 165 179 188 176 186 202 206 230 267 297 309 316 320 327 333 336 338 341 345 349 353 356 358 360 1 2 360 358 350 321 266 215 207 207 212 208
Wind_Speed_850mb
48 43 42 43 39 35 37 35 35 37 38 40 42 45 45 38 36 26 17 12 16 14 54 36 24 20 19 19 6 9 17 5 8 7 3 4 5 6 7 6 7 10 8 7 7 9 13 10 9 10 17 34 42 57
51 45 44 45 42 38 37 37 35 37 37 40 43 43 47 39 32 27 26 22 33 27 50 73 68 68 55 53 27 9 9 14 8 4 5 5 5 6 6 7 4 6 6 4 12 10 14 23 33 51 61 56 65 59
54 48 45 44 43 40 37 38 35 35 36 40 42 41 44 40 32 29 36 35 35 19 41 15 3 15 41 30 28 23 13 15 15 15 4 5 9 3 4 7 6 8 4 5 10 8 16 38 52 45 42 56 69 66
55 51 48 45 43 42 39 37 35 33 35 41 45 43 43 39 33 33 33 24 19 13 10 15 35 21 16 18 28 46 38 23 23 13 7 5 5 13 6 10 11 20 14 8 10 18 30 34 47 55 60 42 39 53
54 52 50 46 44 43 40 37 35 32 33 38 43 42 41 36 31 31 7 10 5 4 8 29 31 25 39 25 13 24 40 44 18 9 6 5 7 5 7 4 6 7 11 6 12 33 35 49 60 56 49 50 56 56
56 52 52 48 45 43 38 38 35 30 32 38 40 39 36 30 27 18 4 11 18 9 12 7 22 22 34 30 23 10 23 39 23 9 8 9 13 8 5 6 15 34 36 45 27 46 54 62 54 33 43 47 59 56
60 53 50 49 44 42 39 39 34 29 31 35 38 38 33 23 19 7 0 4 9 17 7 12 18 14 31 22 17 9 6 20 17 10 11 10 12 16 4 7 19 51 53 49 62 47 40 19 22 41 44 45 65 58
62 54 49 49 43 40 38 38 31 28 32 34 36 36 29 22 11 2 1 3 9 11 7 4 8 20 24 15 12 5 5 11 11 7 6 6 4 7 6 20 49 57 58 56 42 47 33 38 45 51 47 53 47 50
62 55 47 48 41 37 37 36 28 27 32 31 32 18 2 7 3 2 18 7 8 7 4 4 4 8 22 15 11 7 4 5 5 5 5 5 1 4 21 45 63 59 43 53 43 37 35 39 49 50 47 40 40 52
73 57 55 45 39 35 34 30 24 25 27 24 11 3 4 6 10 16 2 3 5 6 4 5 5 7 10 10 9 9 5 4 4 5 8 2 3 18 50 72 65 65 50 37 28 31 39 51 49 53 46 40 35 41
66 65 54 45 37 33 30 25 21 20 18 6 4 5 6 10 7 4 4 5 6 4 7 9 12 10 11 5 6 6 6 4 4 4 4 5 7 38 84 84 63 45 31 18 21 31 41 42 42 47 47 40 37 33
61 64 60 43 37 31 27 22 15 15 11 8 5 2 7 5 4 3 5 5 7 4 7 9 14 17 15 10 8 8 5 4 3 15 6 5 11 68 78 87 76 48 17 31 31 40 50 43 36 40 42 43 37 35
64 60 55 39 35 32 30 19 11 10 7 2 3 3 2 5 1 5 0 4 5 5 8 13 11 17 8 4 4 5 6 5 9 7 4 6 43 73 80 81 79 57 25 28 34 44 47 41 38 44 44 37 34 35
66 64 51 38 34 38 28 21 6 11 6 6 5 4 7 6 7 4 7 7 6 10 24 27 14 4 5 7 2 4 5 4 6 10 7 16 60 77 80 77 75 63 45 26 33 44 50 44 40 45 43 38 39 40
64 58 44 35 39 36 30 14 12 13 10 7 7 6 9 4 7 8 5 1 7 22 31 21 4 3 6 6 6 6 7 6 4 8 10 48 64 73 78 82 80 71 62 29 21 35 45 44 43 46 53 47 46 45
56 45 42 39 38 36 26 18 17 14 8 8 9 5 6 7 2 5 7 7 17 23 16 6 6 6 8 5 7 10 6 6 7 14 45 55 64 70 79 74 70 67 56 31 15 28 37 43 40 40 44 51 50 52
53 43 50 46 37 35 28 24 16 10 10 8 11 16 12 9 5 8 2 7 15 9 3 5 7 1 4 5 5 5 2 7 34 46 45 62 65 68 73 61 62 53 46 32 14 22 30 36 37 47 45 47 56 61
56 53 48 43 44 37 34 16 11 10 12 18 7 11 12 9 20 9 3 9 6 2 4 4 6 8 5 3 3 3 16 35 41 39 59 63 60 64 54 55 55 47 45 42 18 15 21 27 37 40 44 47 43 57
55 51 44 46 47 29 18 17 12 8 20 8 16 11 12 18 15 7 5 1 6 9 14 8 8 3 3 5 8 26 34 31 40 55 61 51 50 54 54 44 48 50 39 38 28 10 11 10 21 31 34 37 48 50
43 37 38 53 43 13 10 9 14 9 8 10 12 18 22 16 21 15 16 13 12 9 11 6 5 5 1 9 16 20 28 36 46 52 49 52 54 55 48 43 43 45 41 29 27 9 13 13 11 20 27 31 32 31
55 49 54 51 28 9 9 9 13 9 7 9 15 22 17 34 16 7 9 7 10 6 5 8 12 8 2 7 16 24 33 37 34 34 44 57 52 49 45 39 38 38 42 38 27 9 11 16 15 11 17 22 26 28
60 58 51 41 12 10 8 14 8 7 9 6 14 16 15 13 13 8 12 8 6 6 9 12 11 6 4 6 16 25 33 40 28 26 29 35 43 44 42 40 41 39 41 44 25 20 4 3 4 7 13 17 20 25
62 47 37 17 12 19 8 16 11 9 5 8 17 10 8 10 18 24 8 5 8 15 14 17 10 5 3 2 12 23 36 43 38 27 35 37 36 35 36 36 34 32 39 38 25 14 1 13 7 3 8 8 11 17
50 24 13 14 16 11 9 11 13 8 9 6 9 9 10 14 26 7 4 9 15 21 17 18 13 9 8 3 12 23 37 42 37 32 31 36 40 41 36 36 34 28 37 33 25 11 12 18 19 9 6 6 7 11
12 13 11 11 15 10 9 8 8 6 7 7 7 6 8 15 5 4 8 17 33 25 26 20 12 7 6 4 12 20 30 39 41 38 32 31 38 40 41 36 32 30 36 33 22 17 9 22 21 16 15 8 4 7
8 16 16 18 14 10 10 9 12 10 7 7 9 15 9 7 6 7 7 32 39 30 25 22 14 8 4 4 11 23 30 32 36 34 27 33 34 37 44 45 47 39 37 34 26 17 13 13 23 30 27 18 10 7
8 10 12 16 11 7 6 7 12 8 9 8 8 7 6 7 6 7 20 29 28 25 25 17 11 4 3 5 12 19 23 27 34 33 26 30 28 33 44 45 44 44 41 36 29 22 17 8 16 23 35 36 24 17
10 6 10 13 10 11 3 6 8 9 8 11 21 6 13 8 5 18 19 26 29 27 23 15 9 6 2 5 13 19 24 29 31 25 16 18 31 43 48 45 38 35 35 31 28 24 24 25 15 23 31 44 45 35
8 8 12 4 10 9 14 8 10 11 15 19 8 5 8 9 22 28 37 38 32 25 23 14 17 10 5 6 14 20 27 35 42 48 50 50 50 51 53 54 52 46 42 37 28 25 25 34 37 31 32 39 52 55
8 22 10 10 9 9 7 8 13 19 19 28 27 36 36 40 42 38 37 33 31 28 22 19 18 12 4 3 10 18 24 30 39 47 53 52 52 52 53 54 55 54 50 47 43 34 28 32 46 43 49 39 56 68
12 25 13 11 10 12 23 23 29 36 30 24 38 55 44 36 42 34 31 27 25 26 24 20 15 10 7 7 11 17 21 28 36 43 46 42 39 39 45 49 52 55 56 55 50 40 35 32 39 55 46 52 59 64
20 16 12 9 6 39 42 13 11 15 19 26 24 30 37 18 12 17 24 20 23 24 23 19 15 8 7 10 14 18 25 30 39 45 46 41 36 35 40 43 49 54 58 58 54 44 35 36 37 54 52 42 54 64
28 22 31 15 14 15 14 19 11 11 11 9 12 30 19 11 10 17 27 20 18 17 14 15 13 11 9 12 15 19 26 33 37 37 34 33 33 34 37 39 42 48 53 56 55 51 42 26 19 42 56 46 51 67
Wind_Direction_850mb
264 268 275 281 286 293 301 308 316 321 328 331 336 339 333 336 340 350 334 301 327 266 285 277 259 242 234 230 194 322 347 330 349 16 263 309 289 348 305 313 292 197 189 209 201 221 264 144 99 189 238 285 298 294
262 263 269 275 281 287 295 301 311 317 324 327 330 336 328 329 335 327 316 302 305 279 273 291 285 276 276 256 253 227 248 306 293 38 5 338 318 313 307 295 277 269 194 218 209 222 236 210 247 279 287 277 294 292
260 261 265 271 276 282 289 297 305 312 318 322 325 330 325 324 331 321 311 314 313 292 304 308 18 322 314 289 265 206 235 214 225 221 180 248 264 279 288 267 314 299 326 262 352 273 265 283 301 311 317 294 293 298
256 260 263 266 272 278 283 292 299 306 314 322 324 327 323 323 333 327 315 315 297 293 295 294 325 353 3 324 232 221 259 270 247 195 211 250 243 204 248 251 257 259 313 253 258 278 305 296 307 304 307 310 311 308
249 256 261 264 269 273 280 288 293 301 312 319 320 323 321 324 334 336 339 11 333 269 297 294 337 12 12 1 287 260 246 225 204 175 213 224 246 296 263 256 247 212 223 225 277 305 276 283 294 302 300 315 322 323
243 249 257 262 265 272 278 282 290 298 310 318 317 315 318 321 336 358 163 46 43 39 315 301 313 340 2 2 354 316 230 215 229 198 216 220 220 223 271 265 256 259 268 292 282 297 293 302 297 286 311 322 329 314
240 245 251 258 262 268 274 279 287 298 311 317 312 310 310 304 320 332 176 319 294 329 272 295 313 314 341 332 346 28 235 217 232 226 231 230 230 204 247 269 305 317 310 319 317 304 299 307 314 319 313 315 324 324
235 242 247 254 260 265 270 277 283 299 311 317 309 304 302 286 272 225 232 322 283 243 269 308 281 319 350 318 321 305 240 215 223 241 251 235 224 198 266 269 302 306 308 301 300 325 307 313 319 327 325 313 315 320
227 236 244 250 255 261 267 274 283 301 316 317 306 310 22 154 178 320 327 323 191 213 243 241 279 296 331 317 303 282 268 249 252 248 239 185 69 57 305 320 318 321 320 294 324 326 306 322 323 321 325 325 325 326
224 225 230 247 250 254 262 267 284 308 320 312 296 238 199 198 248 313 161 241 208 225 225 255 268 279 301 321 302 315 258 238 257 236 130 172 97 290 334 334 330 329 343 332 326 331 340 333 329 330 333 332 330 329
215 229 221 234 248 248 255 263 284 314 316 305 243 210 226 255 254 232 220 225 193 238 230 247 247 277 294 257 277 269 287 266 267 52 306 62 359 342 336 333 348 346 340 335 350 353 341 337 332 334 336 345 348 340
217 224 226 225 242 242 241 254 285 305 305 307 283 208 169 203 223 242 213 177 218 257 224 231 263 254 281 245 269 288 284 295 332 345 37 13 345 340 338 344 350 360 7 349 354 354 354 352 349 343 349 354 354 355
209 220 220 216 233 231 233 241 269 287 291 174 156 164 193 171 74 226 151 340 337 215 253 256 282 292 270 273 323 339 349 340 1 19 24 45 336 341 340 343 351 14 357 347 354 0 6 7 7 4 1 7 8 4
212 219 214 207 222 226 230 229 217 239 197 185 170 334 186 211 229 168 163 198 255 271 316 315 281 265 346 20 351 331 360 339 35 12 5 346 343 339 340 341 350 358 359 334 347 1 11 16 19 14 16 19 18 24
211 218 198 207 219 222 225 194 202 201 193 195 188 224 210 255 152 177 173 134 7 342 331 332 2 334 4 22 21 351 24 38 34 10 310 326 338 336 338 340 346 351 355 342 344 3 14 20 27 26 27 29 31 35
207 199 200 198 217 219 196 166 180 175 195 209 226 247 217 143 272 138 112 16 348 334 331 25 45 52 37 346 36 5 59 8 323 322 315 330 335 335 335 339 349 355 4 355 343 7 17 23 29 29 25 39 45 49
194 193 186 199 212 196 151 168 178 202 200 216 234 225 251 246 224 155 174 340 342 344 25 60 63 271 326 39 56 36 36 300 315 317 324 334 331 329 333 339 351 359 11 10 341 3 17 27 31 38 42 44 56 59
189 191 192 201 197 149 168 171 190 207 230 227 224 203 202 190 170 176 233 321 306 33 58 84 92 47 50 59 339 351 315 319 323 323 324 335 328 330 338 339 351 0 6 18 337 331 4 21 32 42 41 42 50 56
193 186 193 189 160 147 166 187 193 231 225 217 224 208 149 148 139 116 7 329 156 131 110 72 74 77 66 50 322 320 321 331 327 323 326 329 334 333 336 343 350 3 6 11 4 329 351 3 33 43 40 32 44 50
184 193 187 154 148 149 163 193 195 235 219 199 202 158 152 152 136 110 72 113 128 71 64 61 100 129 75 331 340 340 332 330 333 329 329 336 346 344 344 346 347 357 7 2 6 337 356 352 15 45 51 44 43 38
162 156 149 163 176 178 191 194 194 213 201 190 172 154 142 148 145 121 87 73 66 59 98 121 125 122 96 38 359 353 351 345 336 330 325 329 343 345 344 350 348 351 358 1 15 9 344 360 23 61 51 52 54 58
157 151 157 164 174 196 241 208 206 181 189 170 169 153 142 155 154 145 129 68 88 116 131 133 132 162 132 25 1 353 350 349 342 334 337 341 338 348 351 351 345 342 350 351 347 360 310 267 28 44 51 60 59 51
144 144 148 161 196 200 239 188 195 192 154 194 161 135 137 142 161 150 88 109 143 155 147 144 153 180 217 328 355 353 350 354 355 350 355 351 349 351 346 347 354 349 347 346 6 25 140 186 193 136 89 77 50 69
135 147 167 195 198 199 198 193 188 188 187 158 158 152 143 136 153 96 131 161 172 170 160 159 190 189 170 48 16 353 351 355 355 0 357 350 345 347 347 351 356 356 352 352 8 29 159 190 191 201 184 121 80 72
129 186 194 199 196 192 202 167 168 171 180 172 160 125 148 150 107 144 172 180 172 173 170 182 196 195 172 51 16 347 352 357 355 353 356 356 347 343 347 352 354 357 356 353 8 39 116 184 202 221 219 206 144 130
193 195 185 193 174 190 201 162 177 174 150 145 190 139 133 102 117 185 209 183 178 178 183 179 176 159 135 30 6 354 356 355 355 355 359 359 2 358 349 343 341 343 352 350 346 330 360 181 198 205 218 224 220 201
189 206 199 206 203 218 221 182 163 144 173 181 156 130 117 130 169 180 157 169 173 166 161 158 151 138 113 45 7 359 359 359 3 359 352 2 2 5 1 349 339 333 330 328 330 322 295 246 207 202 213 222 229 231
221 204 191 177 204 223 246 179 158 170 178 164 136 119 149 152 146 163 171 164 157 145 139 148 163 161 91 14 7 357 353 353 357 356 355 12 10 7 0 356 351 342 331 319 307 293 266 259 263 208 211 220 225 225
204 182 178 244 224 240 215 218 187 166 156 154 106 108 119 104 141 148 148 147 146 154 162 161 154 161 132 23 4 353 350 351 359 4 5 358 356 360 357 354 354 353 346 337 325 300 276 245 247 234 206 217 220 224
201 193 207 224 193 211 222 200 153 144 142 142 119 110 104 119 134 143 151 155 162 169 171 174 170 188 158 19 359 348 345 349 356 360 357 352 346 346 346 350 353 353 349 345 334 318 291 266 233 234 231 216 210 214
185 204 214 248 189 158 147 142 132 128 123 109 136 127 125 118 126 138 162 176 180 177 183 189 194 201 224 291 329 335 335 342 347 347 345 343 342 342 345 350 352 351 350 346 338 324 302 277 249 224 228 223 216 212
199 214 199 192 93 147 143 112 82 102 111 108 112 133 133 116 106 145 152 174 194 200 196 198 212 214 263 303 320 325 330 334 334 340 341 342 346 348 349 351 354 355 355 353 349 336 313 285 259 222 214 209 215 213
209 218 220 193 133 183 146 114 112 113 116 114 126 143 120 113 133 165 165 179 188 176 186 202 206 230 267 297 309 316 320 327 333 336 338 341 345 349 353 356 358 360 1 2 360 358 350 321 266 215 207 207 212 208